| time (UTC) | temp C | wind direction | speed KPH | gust KPH | rain 1hr cm | rain 24hr cm | rain mn cm | humidity % | barometer mb |
| 20260507033044 | 2 | 84 | 9.7 | 14.5 | 0.00 | 0.00 | 0.00 | 67 | 1016.7 |
| 20260507031541 | 2 | 84 | 4.8 | 12.9 | 0.00 | 0.00 | 0.00 | 70 | 1016.7 |
| 20260507030043 | 2 | 49 | 3.2 | 6.4 | 0.00 | 0.00 | 0.00 | 69 | 1016.5 |
| 20260507024539 | 3 | 48 | 4.8 | 6.4 | 0.00 | 0.00 | 0.00 | 64 | 1016.4 |
| 20260507023038 | 4 | 48 | 3.2 | 8.0 | 0.00 | 0.00 | 0.00 | 60 | 1016.4 |
| 20260507021539 | 5 | 50 | 4.8 | 9.7 | 0.00 | 0.00 | 0.00 | 55 | 1016.2 |
| 20260507020042 | 6 | 44 | 8.0 | 9.7 | 0.00 | 0.00 | 0.00 | 53 | 1016.2 |
| 20260507014543 | 7 | 42 | 4.8 | 9.7 | 0.00 | 0.00 | 0.00 | 51 | 1016.2 |
| 20260507013047 | 8 | 350 | 3.2 | 9.7 | 0.00 | 0.00 | 0.00 | 50 | 1016.1 |
| 20260507011536 | 9 | 341 | 4.8 | 14.5 | 0.00 | 0.00 | 0.00 | 48 | 1016.2 |
| 20260507010041 | 10 | 19 | 4.8 | 17.7 | 0.00 | 0.00 | 0.00 | 48 | 1016.2 |
| 20260507004532 | 10 | 303 | 4.8 | 12.9 | 0.00 | 0.00 | 0.00 | 47 | 1016.1 |
| 20260507003031 | 10 | 341 | 6.4 | 16.1 | 0.00 | 0.00 | 0.00 | 45 | 1016.2 |
| 20260507001531 | 10 | 326 | 4.8 | 14.5 | 0.00 | 0.00 | 0.00 | 46 | 1016.4 |
| 20260507000026 | 10 | 344 | 8.0 | 19.3 | 0.00 | 0.00 | 0.00 | 46 | 1016.6 |
| 20260506234531 | 10 | 336 | 6.4 | 19.3 | 0.00 | 0.00 | 0.00 | 47 | 1016.7 |
| 20260506233027 | 10 | 269 | 16.1 | 24.1 | 0.00 | 0.00 | 0.00 | 46 | 1016.8 |
| 20260506231528 | 10 | 294 | 12.9 | 20.9 | 0.00 | 0.00 | 0.00 | 44 | 1016.8 |
| 20260506230026 | 10 | 325 | 11.3 | 22.5 | 0.00 | 0.00 | 0.00 | 47 | 1016.9 |
| 20260506224520 | 10 | 305 | 8.0 | 20.9 | 0.00 | 0.00 | 0.00 | 46 | 1016.9 |
| 20260506223019 | 10 | 280 | 8.0 | 17.7 | 0.00 | 0.00 | 0.00 | 47 | 1017.0 |
| 20260506221518 | 9 | 275 | 8.0 | 19.3 | 0.00 | 0.00 | 0.00 | 49 | 1017.2 |
| 20260506220023 | 9 | 318 | 11.3 | 19.3 | 0.00 | 0.00 | 0.00 | 48 | 1017.3 |
| 20260506214515 | 9 | 303 | 11.3 | 24.1 | 0.00 | 0.00 | 0.00 | 48 | 1017.5 |
| 20260506213013 | 9 | 246 | 11.3 | 24.1 | 0.00 | 0.00 | 0.00 | 46 | 1017.6 |
| 20260506211519 | 9 | 341 | 9.7 | 25.7 | 0.00 | 0.00 | 0.00 | 45 | 1017.8 |
| 20260506210021 | 9 | 283 | 6.4 | 17.7 | 0.00 | 0.00 | 0.00 | 48 | 1018.0 |
| 20260506204509 | 9 | 328 | 12.9 | 30.6 | 0.00 | 0.00 | 0.00 | 51 | 1018.2 |
| 20260506203007 | 8 | 298 | 16.1 | 30.6 | 0.00 | 0.00 | 0.00 | 50 | 1018.3 |
| 20260506201505 | 8 | 262 | 14.5 | 25.7 | 0.00 | 0.00 | 0.00 | 49 | 1018.5 |
| 20260506194503 | 8 | 325 | 14.5 | 33.8 | 0.00 | 0.00 | 0.00 | 52 | 1018.8 |
| 20260506193002 | 8 | 263 | 17.7 | 27.4 | 0.00 | 0.00 | 0.00 | 50 | 1018.8 |
| 20260506191600 | 8 | 313 | 14.5 | 29.0 | 0.00 | 0.00 | 0.00 | 49 | 1019.0 |
| 20260506190100 | 8 | 269 | 14.5 | 25.7 | 0.00 | 0.00 | 0.00 | 53 | 1019.1 |
| 20260506184610 | 7 | 337 | 9.7 | 22.5 | 0.00 | 0.00 | 0.00 | 50 | 1019.3 |
| 20260506183055 | 7 | 339 | 12.9 | 24.1 | 0.00 | 0.00 | 0.00 | 53 | 1019.4 |
| 20260506181554 | 7 | 313 | 14.5 | 27.4 | 0.00 | 0.00 | 0.00 | 54 | 1019.6 |
| 20260506180054 | 7 | 319 | 12.9 | 29.0 | 0.00 | 0.00 | 0.00 | 54 | 1019.4 |
| 20260506174552 | 7 | 338 | 12.9 | 27.4 | 0.00 | 0.00 | 0.00 | 53 | 1019.6 |
| 20260506173103 | 6 | 307 | 11.3 | 22.5 | 0.00 | 0.00 | 0.00 | 52 | 1019.8 |
| 20260506171552 | 6 | 355 | 9.7 | 20.9 | 0.00 | 0.00 | 0.00 | 55 | 1019.9 |
| 20260506170049 | 6 | 319 | 12.9 | 25.7 | 0.00 | 0.00 | 0.00 | 55 | 1020.1 |
| 20260506164554 | 6 | 272 | 8.0 | 20.9 | 0.00 | 0.00 | 0.00 | 55 | 1020.2 |
| 20260506163046 | 6 | 303 | 6.4 | 27.4 | 0.00 | 0.00 | 0.00 | 54 | 1020.3 |
| 20260506161542 | 6 | 329 | 11.3 | 24.1 | 0.00 | 0.00 | 0.00 | 58 | 1020.1 |
| 20260506160046 | 5 | 277 | 8.0 | 24.1 | 0.00 | 0.00 | 0.00 | 59 | 1020.3 |
| 20260506154542 | 5 | 323 | 11.3 | 24.1 | 0.00 | 0.00 | 0.00 | 59 | 1020.3 |
| 20260506153035 | 5 | 263 | 17.7 | 24.1 | 0.00 | 0.00 | 0.00 | 59 | 1020.4 |
| 20260506151534 | 4 | 325 | 11.3 | 20.9 | 0.00 | 0.00 | 0.00 | 59 | 1020.4 |
| 20260506150029 | 4 | 308 | 6.4 | 20.9 | 0.00 | 0.00 | 0.00 | 61 | 1020.5 |
| 20260506144531 | 3 | 328 | 8.0 | 19.3 | 0.00 | 0.00 | 0.00 | 62 | 1020.6 |
| 20260506143033 | 3 | 301 | 6.4 | 19.3 | 0.00 | 0.00 | 0.00 | 61 | 1020.6 |
| 20260506141526 | 3 | 338 | 9.7 | 17.7 | 0.00 | 0.00 | 0.00 | 63 | 1020.5 |
| 20260506140026 | 3 | 292 | 8.0 | 19.3 | 0.00 | 0.00 | 0.00 | 63 | 1020.5 |
| 20260506134523 | 3 | 345 | 8.0 | 22.5 | 0.00 | 0.00 | 0.00 | 63 | 1020.3 |
| 20260506133024 | 2 | 350 | 8.0 | 17.7 | 0.00 | 0.00 | 0.00 | 63 | 1020.1 |
| 20260506131525 | 2 | 343 | 9.7 | 20.9 | 0.00 | 0.00 | 0.00 | 65 | 1020.1 |
| 20260506130021 | 2 | 333 | 11.3 | 20.9 | 0.00 | 0.00 | 0.00 | 65 | 1020.1 |
| 20260506124516 | 2 | 306 | 12.9 | 20.9 | 0.00 | 0.00 | 0.00 | 67 | 1020.0 |
| 20260506123017 | 2 | 342 | 12.9 | 22.5 | 0.00 | 0.00 | 0.00 | 67 | 1019.9 |
| 20260506121515 | 2 | 334 | 8.0 | 22.5 | 0.00 | 0.00 | 0.00 | 66 | 1019.7 |
| 20260506120009 | 2 | 334 | 11.3 | 19.3 | 0.00 | 0.00 | 0.00 | 67 | 1019.5 |
| 20260506114509 | 2 | 325 | 6.4 | 16.1 | 0.00 | 0.00 | 0.00 | 69 | 1019.3 |
| 20260506113008 | 2 | 323 | 9.7 | 17.7 | 0.00 | 0.00 | 0.00 | 67 | 1019.1 |
| 20260506111502 | 2 | 297 | 8.0 | 16.1 | 0.00 | 0.00 | 0.00 | 69 | 1018.9 |
| 20260506104559 | 2 | 317 | 6.4 | 20.9 | 0.00 | 0.00 | 0.00 | 67 | 1018.6 |
| 20260506103056 | 2 | 346 | 6.4 | 14.5 | 0.00 | 0.00 | 0.00 | 66 | 1018.6 |
| 20260506101555 | 2 | 318 | 6.4 | 16.1 | 0.00 | 0.00 | 0.00 | 66 | 1018.5 |
| 20260506100054 | 2 | 275 | 4.8 | 14.5 | 0.00 | 0.00 | 0.00 | 66 | 1018.4 |
| 20260506094551 | 2 | 20 | 4.8 | 12.9 | 0.00 | 0.00 | 0.00 | 68 | 1018.4 |
| 20260506093053 | 2 | 329 | 9.7 | 16.1 | 0.00 | 0.00 | 0.00 | 68 | 1018.3 |
| 20260506091548 | 2 | 329 | 3.2 | 9.7 | 0.00 | 0.00 | 0.00 | 70 | 1018.4 |
| 20260506090048 | 2 | 290 | 4.8 | 16.1 | 0.00 | 0.00 | 0.00 | 70 | 1018.4 |
| 20260506084547 | 2 | 326 | 6.4 | 17.7 | 0.00 | 0.00 | 0.00 | 70 | 1018.3 |
| 20260506083045 | 2 | 355 | 6.4 | 14.5 | 0.00 | 0.00 | 0.00 | 69 | 1018.1 |
| 20260506081543 | 3 | 343 | 6.4 | 14.5 | 0.00 | 0.00 | 0.00 | 68 | 1017.9 |
| 20260506073038 | 3 | 336 | 6.4 | 17.7 | 0.00 | 0.00 | 0.00 | 66 | 1018.2 |
| 20260506071547 | 3 | 333 | 3.2 | 9.7 | 0.00 | 0.00 | 0.00 | 66 | 1018.2 |
| 20260506061535 | 3 | 5 | 6.4 | 16.1 | 0.00 | 0.00 | 0.00 | 65 | 1018.4 |
| 20260506044522 | 4 | 21 | 3.2 | 12.9 | 0.00 | 0.00 | 0.00 | 60 | 1017.6 |
| 20260506043018 | 4 | 35 | 6.4 | 14.5 | 0.00 | 0.00 | 0.00 | 59 | 1017.4 |
| 20260506041515 | 5 | 5 | 8.0 | 14.5 | 0.00 | 0.00 | 0.00 | 60 | 1017.4 |
| 20260506040016 | 5 | 360 | 8.0 | 20.9 | 0.00 | 0.00 | 0.00 | 61 | 1017.6 |
| 20260506034515 | 5 | 339 | 8.0 | 16.1 | 0.00 | 0.00 | 0.00 | 61 | 1017.5 |